Home   Weather   Mulhouse   Past weeks

Flag for France Past Weather in Mulhouse, Alsace, France — Yesterday and Last 2 Weeks

63 °F

Broken clouds.

Feels Like: 63 °F
Forecast: 52 / 60 °F
Wind: 3 mph from Southwest

Location: Bale-Mulhouse

Current Time: Oct 24, 2016 at 6:11:40 PM

Latest Report: Oct 24, 2016 at 5:30 PM

Visibility: N/A

Pressure: 29.92 "Hg

Humidity: 68%

Dew Point: 52 °F

Location of MulhouseLocation

Past Weather in Mulhouse — Graph


Mulhouse Temperature Yesterday

Maximum temperature yesterday: 50 °F (at 9:00 PM)
Minimum temperature yesterday: 32 °F (at 1:30 AM)
Average temperature yesterday: 43 °F

High & Low Weather Summary for the Past Weeks

High66 °F (Oct 15, 5:30 PM)100% (Oct 9, 8:30 PM)30.27 "Hg (Oct 9, 8:30 PM)
Low30 °F (Oct 13, 2:00 AM)51% (Oct 12, 5:00 PM)29.62 "Hg (Oct 14, 5:30 PM)
Average48 °F85%30.02 "Hg
* Reported Oct 9 5:00 PM — Oct 24 5:00 PM, Mulhouse, Weather by CustomWeather, © 2016

Note: Actual official high and low records may vary slightly from our data, if they occured in-between our weather recording intervals... More about our weather records


Mulhouse Weather History for the Previous 24 Hours

Scroll right to see more
Time TempWeatherWind HumidityBarometerVisibility
5:00 PM
Mon, Oct 24
64 °FBroken clouds.3 mph64%29.92 "HgN/A
4:30 PM64 °FPartly sunny.6 mph60%29.92 "HgN/A
4:00 PM64 °FPartly sunny.5 mph60%29.92 "HgN/A
3:30 PM64 °FBroken clouds.8 mph60%29.89 "HgN/A
3:00 PM63 °FBroken clouds.10 mph59%29.89 "HgN/A
2:30 PM59 °FPartly sunny.8 mph68%29.92 "HgN/A
2:00 PM59 °FPartly sunny.7 mph68%29.92 "HgN/A
1:30 PM57 °FPartly sunny.5 mph72%29.92 "HgN/A
1:00 PM57 °FPartly sunny.6 mph72%29.92 "HgN/A
12:30 PM57 °FPartly sunny.7 mph67%29.92 "HgN/A
12:00 PM55 °FPartly sunny.7 mph77%29.92 "HgN/A
11:30 AM55 °FPartly sunny.6 mph77%29.92 "HgN/A
11:00 AM54 °FPartly sunny.3 mph82%29.92 "HgN/A
10:30 AM54 °FBroken clouds.8 mph82%29.92 "HgN/A
10:00 AM52 °FBroken clouds.3 mph88%29.92 "HgN/A
9:30 AM52 °FBroken clouds.5 mph82%29.92 "HgN/A
9:00 AM52 °FPartly sunny.7 mph82%29.92 "HgN/A
8:30 AM50 °FLight rain. Clear.6 mph88%29.89 "HgN/A
8:00 AM50 °FPassing clouds.6 mph88%29.89 "HgN/A
7:30 AM50 °FClear.8 mph88%29.89 "Hg10 mi
7:00 AM50 °FClear.7 mph88%29.89 "Hg10 mi
6:30 AM50 °FPassing clouds.6 mph88%29.89 "HgN/A
6:00 AM48 °FPassing clouds.5 mph87%29.89 "HgN/A
5:30 AM50 °FPassing clouds.5 mph88%29.89 "HgN/A
5:00 AM50 °FPartly cloudy.5 mph88%29.89 "HgN/A
4:30 AM50 °FPassing clouds.6 mph88%29.89 "HgN/A
4:00 AM50 °FClear.6 mph88%29.92 "Hg10 mi
3:30 AM50 °FPassing clouds.6 mph88%29.92 "HgN/A
3:00 AM50 °FPassing clouds.5 mph88%29.89 "HgN/A
2:30 AM50 °FClear.6 mph88%29.89 "Hg10 mi
2:00 AM50 °FPassing clouds.6 mph88%29.89 "HgN/A
1:30 AM50 °FPassing clouds.7 mph88%29.89 "HgN/A
1:00 AM50 °FClear.6 mph82%29.89 "Hg10 mi
12:30 AM50 °FClear.7 mph82%29.89 "Hg10 mi
12:00 AM50 °FPassing clouds.5 mph82%29.89 "HgN/A
11:30 PM
Sun, Oct 23
50 °FPassing clouds.7 mph82%29.86 "HgN/A
11:00 PM50 °FMostly cloudy.9 mph82%29.86 "HgN/A
10:30 PM50 °FMostly cloudy.9 mph82%29.86 "HgN/A
10:00 PM50 °FMostly cloudy.8 mph88%29.86 "HgN/A
9:30 PM50 °FMostly cloudy.8 mph82%29.86 "HgN/A
9:00 PM50 °FMostly cloudy.8 mph82%29.86 "HgN/A
8:30 PM48 °FMostly cloudy.8 mph94%29.86 "HgN/A
8:00 PM48 °FMostly cloudy.7 mph94%29.86 "HgN/A
7:30 PM48 °FMostly cloudy.7 mph94%29.86 "HgN/A
7:00 PM48 °FMostly cloudy.8 mph94%29.86 "HgN/A
6:30 PM48 °FLight rain. Partly cloudy.7 mph94%29.86 "Hg5 mi
6:00 PM48 °FLight rain. Partly sunny.8 mph94%29.86 "Hg4 mi
Weather by CustomWeather, © 2016

See weather overviewHow to use our weather pages